Regional Weather Roundup
Issued by NWS

Home | Current Version | Previous Version | Text Only | Print | Product List | Glossary On
Versions: 1 2 3 4 5 6 7 8 9 10 11 12 13 14 15 16 17 18 19 20 21 22 23 24 25 26 27 28 29 30 31 32 33 34 35 36 37 38 39 40 41 42 43 44 45 46 47 48 49 50
000
ASUS44 KJAN 311503
RWRMS

MISSISSIPPI HOURLY WEATHER ROUNDUP
NATIONAL WEATHER SERVICE JACKSON MS
1000 AM CDT TUE MAY 31 2016

NOTE: "FAIR: INDICATES FEW OR NO CLOUDS BELOW 12,000 FEET WITH NO
SIGNIFICANT WEATHER AND/OR OBSTRUCTIONS TO VISIBILITY.

MSZ001>002-007>008-010>013-018>021-025>028-034>036-311600-
NORTHWEST MISSISSIPPI

CITY           SKY/WX    TMP DP  RH WIND       PRES   REMARKS
BATESVILLE     RAIN      72  67  85 CALM      29.99F
CLARKSDALE     MOSUNNY   75  73  94 E9        29.97S
CLEVELAND      FAIR      75  73  93 E7        29.96S
GREENWOOD      PTSUNNY   77  65  66 NE5       29.96S
GREENVILLE     SUNNY     77  69  76 E8        29.96S
OLIVE BRANCH   CLOUDY    70  70 100 SE5       29.98F
OXFORD         FAIR      68  64  88 CALM      30.01S
TUNICA         CLOUDY    68  64  88 E3        29.98S
WINONA         FAIR      75  66  75 NE6       29.97S
$$

MSZ003>006-009-014>017-022>024-029>033-037>039-311600-
NORTHEAST MISSISSIPPI

CITY           SKY/WX    TMP DP  RH WIND       PRES   REMARKS
COLUMBUS AFB   NOT AVBL
CORINTH        PTSUNNY   73  66  78 CALM      29.99F
GOLDN TRIANGLE PTSUNNY   82  66  57 N12       29.99R
STARKVILLE     FAIR      73  64  73 NE10      29.96F
TUPELO         RAIN      69  64  84 SE7       30.01R
$$

MSZ040-058-311600-
CENTRAL MISSISSIPPI

CITY           SKY/WX    TMP DP  RH WIND       PRES   REMARKS
JACKSON INTL   PTSUNNY   82  67  60 NE7       29.95S
JACKSON HAWKNS MOSUNNY   83  68  60 N5        29.96R
MADISON        FAIR      79  68  69 CALM      29.95S
MERIDIAN KEY   SUNNY     88  68  51 CALM      29.96S HX  91
MERIDIAN NAS   MOSUNNY   86  66  51 NW5       29.97R
VICKSBURG TVR  SUNNY     81  69  67 E5        29.95S
VICKSBURG VKS  SUNNY     81  70  69 N6        29.95S
$$

MSZ059>079-311600-
SOUTH MISSISSIPPI

CITY           SKY/WX    TMP DP  RH WIND       PRES   REMARKS
BROOKHAVEN     FAIR     N/A N/A N/A NW5       29.97S
COLUMBIA       FAIR      77  72  83 CALM      29.99F
HATTIESBURG    MOSUNNY   83  69  62 CALM      29.95F
MCCOMB         MOSUNNY   80  70  71 N5        29.96S
NATCHEZ        PTSUNNY   81  70  69 NW6       29.96R
PINE BELT      MOSUNNY   81  66  61 N3        29.97S
$$

MSZ080>082-311600-
COASTAL MISSISSIPPI

CITY           SKY/WX    TMP DP  RH WIND       PRES   REMARKS
BILOXI         SUNNY     84  73  71 VRB5      29.95F HX  90
PASCAGOULA     SUNNY     84  71  65 NE6       29.96S
GULFPORT       SUNNY     84  70  62 CALM      29.95F
$$




USA.gov is the U.S. government's official web portal to all federal, state and local government web resources and services.